Content
SEND FEEDBACK

Daily
Averages
Monthly
Summary
United States of America

WILMINGTON, NORTH CAROLINA


Home > North America > United States > North Carolina
Elevation: 72 feet     Latitude: 34 16N     Longitude: 077 54W

WEATHER
 
SELECT A DAY
Number of Records: 208,938;   Date Range: 1/1/95 - 8/12/14
 
SHARE

PRINT THIS DATA

[ ← Previous Day ]
WEATHER ALMANAC - JUNE 24, 2013
[ Next Day → ]
[ °C ]   °F
We're sorry. There is no daily almanac available for Wilmington, North Carolina on June 24, 2013.
WEATHER BY HOUR - JUNE 24, 2013
[ °C ]   °F
Local TimeTemperatureDewpointHumidityBarometerVisibilityWind DirectionWind SpeedGust SpeedPrecipitationEventsConditions
1:53 AM75.9 °F73.0 °F91 %30.18 in10.0 miSouth (180°)6.9 mphClear
2:53 AM75.0 °F73.0 °F94 %30.19 in10.0 miSSW (200°)3.5 mphClear
3:48 AM75.2 °F73.4 °F94 %30.20 in10.0 miCalmMostly Cloudy
3:53 AM73.9 °F72.0 °F93 %30.20 in10.0 miCalmMostly Cloudy
4:53 AM73.0 °F72.0 °F96 %30.21 in8.0 miNNE (30°)4.6 mphOvercast
5:53 AM73.0 °F72.0 °F96 %30.21 in9.0 miCalm0.01 inOvercast
6:39 AM73.4 °F73.4 °F100 %30.21 in9.0 miCalmOvercast
6:53 AM73.9 °F73.0 °F97 %30.21 in10.0 miVariable6.9 mph31.1 mphScattered Clouds
7:53 AM79.0 °F75.0 °F88 %30.22 in7.0 miSouth (190°)4.6 mphMostly Cloudy
8:09 AM78.8 °F75.2 °F89 %30.23 in10.0 miSSW (200°)6.9 mph0.00 inOvercast
8:32 AM73.4 °F71.6 °F94 %30.23 in4.0 miNW (320°)3.5 mph0.02 inRainRain
8:44 AM75.2 °F71.6 °F89 %30.23 in10.0 miCalm0.02 inThunderstormThunderstorm
8:53 AM75.0 °F72.0 °F90 %30.24 in3.0 miWNW (290°)6.9 mph0.02 inRain-ThunderstormLight Thunderstorms and Rain
8:56 AM75.2 °F71.6 °F89 %30.24 in1.8 miWNW (290°)6.9 mph0.03 inRain-ThunderstormThunderstorms and Rain
8:59 AM75.2 °F71.6 °F89 %30.24 in0.8 miVariable4.6 mph0.05 inRain-ThunderstormHeavy Thunderstorms and Rain
9:11 AM73.4 °F71.6 °F94 %30.24 in1.5 miSouth (190°)3.5 mph0.32 inRain-ThunderstormHeavy Thunderstorms and Rain
9:15 AM73.4 °F71.6 °F94 %30.24 in3.0 miSouth (180°)4.6 mph0.32 inRain-ThunderstormLight Thunderstorms and Rain
9:53 AM75.0 °F71.1 °F87 %30.23 in8.0 miWSW (240°)4.6 mph0.33 inRain-ThunderstormLight Thunderstorms and Rain
10:00 AM75.2 °F71.6 °F89 %30.23 in10.0 miCalm0.00 inRainLight Rain
10:34 AM75.2 °F69.8 °F83 %30.24 in10.0 miSE (140°)3.5 mph0.00 inRainLight Rain
10:44 AM75.2 °F71.6 °F89 %30.25 in10.0 miSE (130°)5.8 mph0.00 inRainLight Rain
10:53 AM75.0 °F72.0 °F90 %30.25 in10.0 miESE (120°)3.5 mph0.00 inRainLight Rain
11:00 AM75.2 °F71.6 °F89 %30.24 in10.0 miCalm0.00 inRainLight Rain
11:16 AM75.2 °F71.6 °F89 %30.25 in10.0 miSSW (210°)4.6 mph0.01 inRain-ThunderstormLight Thunderstorms and Rain
11:22 AM75.2 °F71.6 °F89 %30.24 in1.5 miSSW (200°)8.1 mph0.03 inRain-ThunderstormThunderstorms and Rain
11:29 AM75.2 °F73.4 °F94 %30.24 in1.2 miSouth (180°)5.8 mph0.14 inRain-ThunderstormThunderstorms and Rain
11:32 AM75.2 °F73.4 °F94 %30.24 in2.0 miSouth (180°)5.8 mph0.14 inRain-ThunderstormLight Thunderstorms and Rain
11:39 AM75.2 °F73.4 °F94 %30.24 in9.0 miSouth (170°)4.6 mph0.14 inRain-ThunderstormLight Thunderstorms and Rain
11:49 AM75.2 °F73.4 °F94 %30.24 in10.0 miSouth (170°)5.8 mph0.14 inMostly Cloudy
11:53 AM75.0 °F73.0 °F94 %30.24 in10.0 miSSE (160°)5.8 mph0.14 inMostly Cloudy
12:53 PM77.0 °F73.9 °F90 %30.24 in10.0 miSSW (200°)6.9 mph0.01 inOvercast
1:53 PM82.0 °F75.0 °F79 %30.20 in10.0 miSouth (190°)10.4 mphClear
2:34 PM84.2 °F75.2 °F74 %30.19 in10.0 miSouth (190°)8.1 mphMostly Cloudy
2:46 PM82.4 °F73.4 °F74 %30.18 in10.0 miSSW (200°)13.8 mphPartly Cloudy
2:53 PM84.0 °F73.9 °F72 %30.17 in10.0 miSSW (210°)9.2 mphScattered Clouds
3:53 PM82.0 °F73.0 °F74 %30.19 in10.0 miSW (230°)9.2 mphMostly Cloudy
4:10 PM75.2 °F69.8 °F83 %30.19 in10.0 miWest (280°)12.7 mph24.2 mph0.00 inRainLight Rain
4:22 PM75.2 °F71.6 °F89 %30.19 in2.5 miWest (270°)5.8 mph0.00 inRainLight Rain
4:24 PM75.2 °F71.6 °F89 %30.19 in1.8 miWest (260°)3.5 mph0.01 inRainHeavy Rain
4:31 PM75.2 °F71.6 °F89 %30.19 in2.0 miWSW (250°)12.7 mph0.07 inRainLight Rain
4:38 PM73.4 °F69.8 °F88 %30.18 in10.0 miWSW (240°)10.4 mph0.07 inRainLight Rain
4:53 PM73.9 °F70.0 °F87 %30.17 in10.0 miCalm0.07 inScattered Clouds
5:53 PM75.9 °F71.1 °F85 %30.16 in10.0 miCalmClear
6:53 PM77.0 °F72.0 °F84 %30.16 in10.0 miCalmClear
7:53 PM77.0 °F73.0 °F88 %30.14 in10.0 miSSW (200°)6.9 mphClear
8:53 PM77.0 °F73.0 °F88 %30.14 in10.0 miSSW (200°)9.2 mphClear
9:53 PM77.0 °F73.0 °F88 %30.15 in10.0 miSouth (190°)5.8 mphClear
10:53 PM77.0 °F73.0 °F88 %30.16 in10.0 miSSW (200°)5.8 mphClear
11:53 PM75.9 °F73.0 °F91 %30.17 in10.0 miSW (220°)3.5 mphClear
Hourly data recorded from KILM, located miles away from Wilmington, North Carolina







STORIES FROM OUR PARTNERS